Location: Westminster
(33.3626°N, 96.4619°W)
Time: 13:58:31
(UTC+00:00)

Cosmos 1763 Rocket - Pass Details

Date: 04 July 2022
Orbit: 732 x 780 km, 74.0° (Epoch: 07 August)

Event Time Altitude Azimuth Distance (km) Brightness Sun altitude
Exits shadow 08:01:41 29° 311° (NW) 1,365 4.9 -29.7°
Drops below altitude 10° 08:05:30 10° 355° (N) 2,315 6.7 -29.4°
Sets 08:08:10 0° 6° (N) 3,252 7.8 -29.1°
